Regional Weather Roundup
Issued by NWS Upton, NY

Current Version | Previous Version | Graphics & Text | Print | Product List | Glossary Off
Versions: 1 2 3 4 5 6 7 8 9 10 11 12 13 14 15 16 17 18 19 20 21 22 23 24 25 26 27 28 29 30 31 32 33 34 35 36 37 38 39 40 41 42 43 44 45 46 47 48 49 50

000
ASUS41 KOKX 261507
RWROKX

REGIONAL WEATHER ROUNDUP
NATIONAL WEATHER SERVICE NEW YORK NY
1100 AM EDT THU MAR 26 2015

NOTE: "FAIR" INDICATES FEW OR NO CLOUDS BELOW 12,000 FEET WITH NO
SIGNIFICANT WEATHER AND/OR OBSTRUCTIONS TO VISIBILITY.

NYZ071-072-176-178-NJZ106-104-261600-
NEW YORK CITY METRO AREA


CITY           SKY/WX    TMP DP  RH WIND       PRES   REMARKS
CENTRAL PARK   CLOUDY    49  44  83 W5        29.94F HAZE
LAGUARDIA APRT CLOUDY    48  43  82 VRB5      29.92F HAZE
KENNEDY INTL   CLOUDY    47  43  86 SE3       29.94F FOG
NEWARK/LIBERTY LGT RAIN  46  42  86 NE3       29.92F FOG
BRNX BOT. GARD   N/A     46  43  87 SE2       29.93F
TETERBORO      CLOUDY    46  42  86 CALM      29.91F FOG
$$

NYZ177-179-078>081-261600-
LONG ISLAND NEW YORK

CITY           SKY/WX    TMP DP  RH WIND       PRES   REMARKS
FARMINGDALE    CLOUDY    46  45  96 S6        29.93F FOG
ISLIP          LGT RAIN  46  45  96 S3        29.92F FOG
SHIRLEY        CLOUDY    45  45 100 S3        29.94F FOG
WESTHAMPTON    LGT RAIN  44  43  96 CALM      29.95F FOG
MONTAUK POINT    N/A     44  43  96 S8        29.97F
$$

NYZ052-065-067-261600-
HUDSON VALLEY

CITY           SKY/WX    TMP DP  RH WIND       PRES   REMARKS
WHITE PLAINS   FOG       44  42  93 SE5       29.91F VSB 1
NEWBURGH       CLOUDY    45  41  87 SW6       29.91F FOG
MONTGOMERY     CLOUDY    43  40  89 S3        29.88F FOG
POUGHKEEPSIE   CLOUDY    45  39  79 S3        29.90F
ALBANY         LGT RAIN  41  36  82 S7        29.87F FOG
$$

NJZ001-105-106-008-010-013-015-019>022-104-261600-
NEW JERSEY

CITY           SKY/WX    TMP DP  RH WIND       PRES   REMARKS
NEWARK/LIBERTY LGT RAIN  46  42  86 NE3       29.92F FOG
TETERBORO      CLOUDY    46  42  86 CALM      29.91F FOG
CALDWELL       CLOUDY    46  40  79 CALM      29.92F HAZE
MORRISTOWN     CLOUDY    45  41  87 CALM      29.92F FOG
SOMERVILLE     CLOUDY    46  40  79 CALM      29.89F HAZE
SUSSEX         CLOUDY    41  38  89 CALM      29.89F FOG
ANDOVER          N/A     42  38  85 CALM      29.89F
TRENTON        CLOUDY    47  44  90 CALM      29.89F FOG
MILLVILLE      LGT RAIN  57  56  96 SW6       29.92F FOG
ATLANTIC CITY  CLOUDY    59  56  89 S12       29.92F
WRIGHTSTOWN    FOG       54  54 100 SW10      29.88F VSB 1
TOMS RIVER     CLOUDY    61  57  88 S10G17    29.91F
BELMAR         CLOUDY    52  46  82 CALM      29.91F
$$

PAZ047>061-062-071-261600-
EASTERN PENNSYLVANIA

CITY           SKY/WX    TMP DP  RH WIND       PRES   REMARKS
PHILADELPHIA   CLOUDY    51  46  83 CALM      29.90F HAZE
ALLENTOWN      CLOUDY    42  38  85 E5        29.89F FOG
SCRANTON       CLOUDY    45  37  73 N5        29.82F HAZE
$$

CTZ002-004>006-009-010-012-RIZ004-006-007-MAZ004-011-015-261600-
SOUTHERN NEW ENGLAND
 IN CT

CITY           SKY/WX    TMP DP  RH WIND       PRES   REMARKS
BRADLEY INTL   PTSUNNY   45  41  86 NW5       29.90F
HARTFORD       CLOUDY    45  40  82 SW6       29.93F
DANBURY        CLOUDY    43  39  86 CALM      29.92F FOG
WTRBRY/OXFORD  FOG       43  36  75 CALM      29.93F VSB 3/4
BRIDGEPORT     CLOUDY    43  41  93 CALM      29.94F FOG
MERIDEN        CLOUDY    43  40  89 S6        29.93F FOG
NEW HAVEN      CLOUDY    42  42 100 CALM      29.94F FOG
CHESTER        CLOUDY    45  45 100 SW5       29.94F FOG
GROTON         CLOUDY    41  39  93 S5        29.95F FOG
WILLIMANTIC    CLOUDY    44  42  93 CALM      29.94F FOG

 IN RI

CITY           SKY/WX    TMP DP  RH WIND       PRES   REMARKS
PROVIDENCE     PTSUNNY   52  46  80 SW9       29.93F
BLOCK ISLAND   CLOUDY    45  41  87 SW13      29.96F VSB 1/2
WESTERLY       CLOUDY    45  44  97 S7        29.95F FOG

 IN MA

CITY           SKY/WX    TMP DP  RH WIND       PRES   REMARKS
BOSTON         CLOUDY    48  44  86 SW12      29.93F
WORCESTER      FOG       42  41  96 S12       29.90F VSB 3/4
WESTFIELD      FOG       40  39  97 S6        29.92F VSB 1/4
PROVINCETOWN   CLOUDY    48  43  81 SW14      29.95S
NANTUCKET      LGT RAIN  42  41  96 SW10      29.99F VSB 1/4
$$

ANZ330-335-338-340-345-350-353-355-261600-
COASTAL MARINE OBSERVATIONS


STATION/POSITION TIME  SKY/WX   TEMP    WIND        PRES    VSBY  WAVE
                                AIR SEA DIR/SP/G                  HT/PER
                 (UTC)          (F)     (DEG/KT/KT) (MB)    (MI)  (FT/S)
NY HARB ENTRANCE 1450            41 38  150/  6/  8 1013.3          4/ 7
4S FIRE IS       1403               37                N/A           3/ 6
20S FIRE ISLAND  1350               38              1015.4          4/ 7
23SW MTP         1450                                 N/A           4/ 7
HUDSON CANYON    NOT AVBL
EXECUTION ROCKS  NOT AVBL
WESTERN LI SOUND NOT AVBL
CENTRAL LI SOUND NOT AVBL
EASTERN LI SOUND NOT AVBL
ROBBINS REEF     1400            42     160/  6/  6 1013.0
$$


>>>>>>>>>>>>>>>>>>>>>>>>>>>> KEY <<<<<<<<<<<<<<<<<<<<<<<<<<<
>                                                          <
>     SKY/WX - SKY CONDITION/PRESENT WEATHER               <
>     TMP    - TEMPERATURE IN FAHRENHEIT                   <
>     DP     - DEWPOINT IN FAHRENHEIT                      <
>     RH     - RELATIVE HUMIDITY IN PERCENT                <
>     WIND   - DIRECTION AND SPEED IN MPH                  <
>     PRES   - MEAN SEA LEVEL PRESSURE IN INCHES OF HG     <
>     WCI    - WIND CHILL INDEX                            <
>     VSB    - VISIBILITY IN MILES                         <
>     HX     - HEAT INDEX                                  <
>     TC     - TEMPERATURE IN CELSIUS                      <
>     VRB    - VARIABLE WIND DIRECTION                     <
>                                                          <
>>>>>>>>>>>>>>>>>>>>>>>>>>>> KEY <<<<<<<<<<<<<<<<<<<<<<<<<<<





USA.gov is the U.S. government's official web portal to all federal, state and local government web resources and services.